When you browse on this site, cookies collect data to enhance your experience and personalize the content and advertising you see.
Visit our Privacy Policy to learn more. By continuing to use the site, you agree to this use of cookies and data.
  • In Lithuania
  • List of Countries
  • For 7 days
  • Water Temperature
  • Weather Map
  • Weather Widgets
  • user-avatar
    Login

    Hourly Weather La Massana

    Today, 17 October, Thursday

    Time Temperature Precipitation Wind Pressure Humidity
    00:00 +5°C° 0 mm 1 mps 609 mmHg 76%
    01:00 +5°C° 0 mm 1 mps 609 mmHg 75%
    02:00 +5°C° 0 mm 1 mps 608 mmHg 74%
    03:00 +5°C° 0 mm 1 mps 608 mmHg 73%
    04:00 +5°C° 0 mm 1 mps 608 mmHg 74%
    05:00 +5°C° 0 mm 1 mps 608 mmHg 75%
    06:00 +4°C° 0 mm 2 mps 608 mmHg 77%
    07:00 +6°C° 0 mm 2 mps 609 mmHg 68%
    08:00 +8°C° 0 mm 2 mps 610 mmHg 59%
    09:00 +10°C° 0 mm 2 mps 611 mmHg 51%
    10:00 +10°C° 0 mm 2 mps 612 mmHg 52%
    11:00 +12°C° 0 mm 2 mps 612 mmHg 53%
    12:00 +10°C° 0 mm 2 mps 612 mmHg 57%
    13:00 +12°C° 0 mm 2 mps 611 mmHg 58%
    14:00 +12°C° 0 mm 1 mps 611 mmHg 59%
    15:00 +12°C° 0 mm 1 mps 611 mmHg 59%
    16:00 +10°C° 0 mm 1 mps 610 mmHg 67%
    17:00 +8°C° 0 mm 1 mps 610 mmHg 75%
    18:00 +6°C° 0 mm 1 mps 609 mmHg 83%
    19:00 +6°C° 0 mm 1 mps 609 mmHg 84%
    20:00 +6°C° 0 mm 1 mps 609 mmHg 85%
    21:00 +5°C° 0 mm 1 mps 609 mmHg 86%
    22:00 +5°C° 0 mm 1 mps 609 mmHg 86%
    23:00 +5°C° 0 mm 1 mps 609 mmHg 86%

    Tomorrow, 18 October, Friday

    Time Temperature Precipitation Wind Pressure Humidity
    00:00 +5°C° 0 mm 1 mps 608 mmHg 85%
    01:00 +5°C° 0 mm 1 mps 608 mmHg 85%
    02:00 +5°C° 0 mm 1 mps 608 mmHg 85%
    03:00 +5°C° 0 mm 1 mps 608 mmHg 85%
    04:00 +6°C° 0 mm 1 mps 608 mmHg 86%
    05:00 +6°C° 0 mm 1 mps 608 mmHg 87%
    06:00 +6°C° 0 mm 1 mps 609 mmHg 88%
    07:00 +8°C° 0 mm 1 mps 609 mmHg 82%
    08:00 +9°C° 0 mm 1 mps 610 mmHg 75%
    09:00 +11°C° 0 mm 1 mps 611 mmHg 69%
    10:00 +11°C° 0 mm 1 mps 611 mmHg 66%
    11:00 +12°C° 0 mm 2 mps 612 mmHg 63%
    12:00 +13°C° 0 mm 2 mps 612 mmHg 60%
    13:00 +13°C° 0 mm 2 mps 611 mmHg 61%
    14:00 +12°C° 0 mm 2 mps 611 mmHg 63%
    15:00 +12°C° 0 mm 2 mps 610 mmHg 64%
    16:00 +9°C° 0 mm 2 mps 609 mmHg 72%
    17:00 +8°C° 0 mm 2 mps 608 mmHg 80%
    18:00 +6°C° 0 mm 2 mps 608 mmHg 87%
    19:00 +6°C° 0 mm 2 mps 607 mmHg 87%
    20:00 +6°C° 0 mm 2 mps 607 mmHg 87%
    21:00 +6°C° 0 mm 2 mps 607 mmHg 86%
    22:00 +6°C° 0.1 mm 2 mps 607 mmHg 87%
    23:00 +6°C° 0.1 mm 2 mps 607 mmHg 88%

    Day after tomorrow, 19 October, Saturday

    Time Temperature Precipitation Wind Pressure Humidity
    00:00 +6°C° 0.1 mm 2 mps 606 mmHg 89%
    01:00 +6°C° 0.2 mm 2 mps 606 mmHg 90%
    02:00 +6°C° 0.2 mm 2 mps 606 mmHg 91%
    03:00 +6°C° 0.2 mm 2 mps 606 mmHg 92%
    04:00 +6°C° 0.1 mm 2 mps 605 mmHg 93%
    05:00 +5°C° 0.1 mm 2 mps 605 mmHg 93%
    06:00 +5°C° 0.1 mm 2 mps 605 mmHg 94%
    07:00 +6°C° 0.1 mm 2 mps 606 mmHg 89%
    08:00 +7°C° 0.1 mm 2 mps 606 mmHg 85%
    09:00 +8°C° 0.1 mm 2 mps 607 mmHg 81%
    10:00 +9°C° 0.1 mm 3 mps 607 mmHg 78%
    11:00 +10°C° 0.1 mm 3 mps 607 mmHg 75%
    12:00 +10°C° 0.1 mm 3 mps 607 mmHg 72%
    13:00 +10°C° 0.1 mm 3 mps 607 mmHg 72%
    14:00 +10°C° 0.1 mm 2 mps 606 mmHg 72%
    15:00 +10°C° 0.1 mm 2 mps 606 mmHg 72%
    16:00 +8°C° 0 mm 2 mps 605 mmHg 78%
    17:00 +7°C° 0 mm 2 mps 605 mmHg 84%
    18:00 +7°C° 0 mm 1 mps 604 mmHg 90%
    19:00 +6°C° 0.1 mm 2 mps 604 mmHg 89%
    20:00 +6°C° 0.1 mm 2 mps 605 mmHg 89%
    21:00 +6°C° 0.1 mm 2 mps 605 mmHg 89%
    22:00 +6°C° 0.2 mm 2 mps 604 mmHg 91%
    23:00 +5°C° 0.2 mm 3 mps 604 mmHg 92%

    20 October, Sunday

    Time Temperature Precipitation Wind Pressure Humidity
    00:00 +5°C° 0.2 mm 3 mps 604 mmHg 94%
    01:00 +5°C° 0.1 mm 3 mps 603 mmHg 93%
    02:00 +4°C° 0.1 mm 3 mps 603 mmHg 93%
    03:00 +4°C° 0.1 mm 3 mps 602 mmHg 92%
    04:00 +4°C° 0.1 mm 2 mps 602 mmHg 90%
    05:00 +4°C° 0.1 mm 2 mps 602 mmHg 89%
    06:00 +4°C° 0.1 mm 2 mps 602 mmHg 87%
    07:00 +5°C° 0.6 mm 2 mps 603 mmHg 88%
    08:00 +5°C° 0.6 mm 2 mps 603 mmHg 89%
    09:00 +5°C° 0.6 mm 2 mps 603 mmHg 89%
    10:00 +6°C° 1 mm 2 mps 604 mmHg 90%
    11:00 +6°C° 1 mm 2 mps 604 mmHg 91%
    12:00 +6°C° 1 mm 2 mps 604 mmHg 92%
    13:00 +6°C° 0.3 mm 2 mps 604 mmHg 89%
    14:00 +6°C° 0.3 mm 2 mps 604 mmHg 86%
    15:00 +6°C° 0.3 mm 2 mps 604 mmHg 83%
    16:00 +5°C° 0.1 mm 2 mps 604 mmHg 87%
    17:00 +4°C° 0.1 mm 1 mps 604 mmHg 90%
    18:00 +3°C° 0.1 mm 1 mps 604 mmHg 94%
    19:00 +3°C° 0 mm 1 mps 605 mmHg 95%
    20:00 +2°C° 0 mm 1 mps 605 mmHg 95%
    21:00 +1°C° 0 mm 0 mps 606 mmHg 96%
    22:00 +1°C° 0 mm 0 mps 606 mmHg 94%
    23:00 +2°C° 0 mm 1 mps 606 mmHg 93%

    21 October, Monday

    Time Temperature Precipitation Wind Pressure Humidity
    00:00 +1°C° 0 mm 1 mps 606 mmHg 92%
    01:00 +1°C° 0 mm 1 mps 606 mmHg 91%
    02:00 +1°C° 0 mm 1 mps 607 mmHg 90%
    03:00 +1°C° 0 mm 1 mps 607 mmHg 88%
    04:00 0°C° 0 mm 0 mps 607 mmHg 88%
    05:00 0°C° 0 mm 0 mps 607 mmHg 88%
    06:00 -1°C° 0 mm 0 mps 607 mmHg 89%
    07:00 +2°C° 0 mm 1 mps 608 mmHg 84%
    08:00 +4°C° 0 mm 1 mps 609 mmHg 79%
    09:00 +6°C° 0 mm 1 mps 610 mmHg 74%
    10:00 +6°C° 0 mm 1 mps 611 mmHg 69%
    11:00 +6°C° 0 mm 2 mps 611 mmHg 64%
    12:00 +7°C° 0 mm 2 mps 611 mmHg 59%
    13:00 +6°C° 0 mm 2 mps 611 mmHg 62%
    14:00 +6°C° 0 mm 2 mps 611 mmHg 65%
    15:00 +6°C° 0 mm 1 mps 610 mmHg 67%
    16:00 +5°C° 0 mm 1 mps 610 mmHg 74%
    17:00 +4°C° 0 mm 1 mps 610 mmHg 81%
    18:00 +2°C° 0 mm 0 mps 609 mmHg 88%
    19:00 +3°C° 0 mm 1 mps 609 mmHg 89%
    20:00 +3°C° 0 mm 1 mps 609 mmHg 90%
    21:00 +3°C° 0 mm 1 mps 609 mmHg 90%
    22:00 +3°C° 0 mm 1 mps 609 mmHg 90%
    23:00 +2°C° 0 mm 1 mps 609 mmHg 90%

    22 October, Tuesday

    Time Temperature Precipitation Wind Pressure Humidity
    00:00 +2°C° 0 mm 1 mps 609 mmHg 90%
    01:00 +2°C° 0.1 mm 1 mps 609 mmHg 89%
    02:00 +2°C° 0.1 mm 1 mps 609 mmHg 89%
    03:00 +2°C° 0.1 mm 1 mps 609 mmHg 88%
    04:00 +2°C° 0.4 mm 1 mps 608 mmHg 89%
    05:00 +2°C° 0.4 mm 1 mps 608 mmHg 90%
    06:00 +2°C° 0.4 mm 1 mps 608 mmHg 91%
    07:00 +3°C° 0.4 mm 1 mps 608 mmHg 91%
    08:00 +4°C° 0.4 mm 1 mps 609 mmHg 90%
    09:00 +5°C° 0.4 mm 1 mps 609 mmHg 90%
    10:00 +5°C° 0.2 mm 1 mps 609 mmHg 90%
    11:00 +6°C° 0.2 mm 1 mps 608 mmHg 91%
    12:00 +6°C° 0.2 mm 1 mps 608 mmHg 91%
    13:00 +7°C° 0.2 mm 1 mps 608 mmHg 92%
    14:00 +7°C° 0.2 mm 1 mps 608 mmHg 93%
    15:00 +7°C° 0.2 mm 2 mps 608 mmHg 94%
    16:00 +7°C° 1.4 mm 2 mps 607 mmHg 95%
    17:00 +7°C° 1.4 mm 2 mps 607 mmHg 96%
    18:00 +7°C° 1.4 mm 2 mps 607 mmHg 97%
    19:00 +7°C° 2.7 mm 2 mps 607 mmHg 97%
    20:00 +7°C° 2.7 mm 2 mps 607 mmHg 97%
    21:00 +7°C° 2.7 mm 2 mps 607 mmHg 97%
    22:00 +7°C° 2 mm 2 mps 606 mmHg 97%
    23:00 +7°C° 2 mm 2 mps 606 mmHg 97%
    Show more